Weather History for Palm Springs, CA

Change the Weather History Date:

Tuesday, February 19, 2013

  Actual Average Record
Temperature  
Mean Temperature 55 °F 61 °F  
Max Temperature 65 °F 73 °F 94 °F (1977)
Min Temperature 44 °F 49 °F 32 °F (1944)
Degree Days  
Heating Degree Days 10 5  
Month to date heating degree days 92 115  
Since 1 July heating degree days 668 742  
Cooling Degree Days 0 1  
Month to date cooling degree days 11 18  
Year to date cooling degree days 12 26  
Growing Degree Days 4 (Base 50)    
Moisture  
Dew Point 37 °F    
Average Humidity 58    
Maximum Humidity 83    
Minimum Humidity 32    
Precipitation  
Precipitation 0.00 in 0.05 in 1.80 in (1914)
Month to date precipitation 0.03 0.65  
Year to date precipitation 0.64 1.65  
Since 1 July precipitation 1.86 4.45  
Snow  
Snow 0.00 in - - ()
Month to date snowfall 0.0  
Year to date snowfall 0.0  
Since 1 July snowfall 0.0  
Snow Depth 0.00 in    
Sea Level Pressure  
Sea Level Pressure 29.75 in    
Wind  
Wind Speed 6 mph (NW)    
Max Wind Speed 24 mph    
Max Gust Speed 33 mph    
Visibility 10 miles    
Events Rain    
T = Trace of Precipitation, MM = Missing Value Source: NWS Daily Summary

Daily Weather History Graph

Daily Weather History Graph

Search for Another Location

Airport:

Trip Planner

Search our weather history database for the weather conditions in past years. The results will help you decide how hot, cold, wet, or windy it might be!

Date:

Astronomy

Feb. 19, 2013 Rise Set
Actual Time 6:25 AM PST 5:34 PM PST
Civil Twilight 6:00 AM PST 5:59 PM PST
Nautical Twilight 5:31 AM PST 6:28 PM PST
Astronomical Twilight 5:02 AM PST 6:57 PM PST
Moon 12:17 PM PST (2/19) 1:53 AM PST (2/19)
Length of Visible Light 11h 59m
Length of Day
11h 08m
Waxing Gibbous, 68% of the Moon is Illuminated
Feb 19
Waxing Gibbous
Feb 25
Full
Mar 4
Last Quarter
Mar 11
New
Mar 19
First Quarter

Hourly Weather History & Observations

Time (PST) Temp. Dew Point Humidity Pressure Visibility Wind Dir Wind Speed Gust Speed Precip Events Conditions
12:53 AM 53.1 °F 42.1 °F 66% 29.85 in 10.0 mi Calm Calm - N/A   Clear
1:53 AM 51.1 °F 42.1 °F 71% 29.83 in 10.0 mi SW 5.8 mph - N/A   Clear
2:53 AM 51.1 °F 41.0 °F 68% 29.81 in 10.0 mi Calm Calm - N/A   Clear
3:53 AM 52.0 °F 42.1 °F 69% 29.81 in 10.0 mi Variable 3.5 mph - N/A   Clear
4:53 AM 48.9 °F 41.0 °F 74% 29.80 in 10.0 mi Calm Calm - N/A   Clear
5:53 AM 46.9 °F 39.9 °F 77% 29.81 in 10.0 mi Calm Calm - N/A   Clear
6:53 AM 45.0 °F 39.0 °F 80% 29.83 in 10.0 mi Calm Calm - N/A   Clear
7:53 AM 53.1 °F 39.9 °F 61% 29.83 in 10.0 mi Calm Calm - N/A   Scattered Clouds
8:53 AM 57.0 °F 35.1 °F 44% 29.81 in 10.0 mi Variable 6.9 mph - N/A   Scattered Clouds
10:53 AM 60.1 °F 30.9 °F 33% 29.80 in 10.0 mi WNW 5.8 mph 17.3 mph N/A   Scattered Clouds
11:53 AM 63.0 °F 32.0 °F 31% 29.76 in 10.0 mi NNW 16.1 mph 24.2 mph N/A   Scattered Clouds
12:53 PM 63.0 °F 32.0 °F 31% 29.73 in 10.0 mi NNW 21.9 mph 28.8 mph N/A   Scattered Clouds
1:53 PM 62.1 °F 34.0 °F 35% 29.71 in 10.0 mi NW 10.4 mph 23.0 mph N/A   Clear
2:53 PM 64.0 °F 35.1 °F 34% 29.70 in 10.0 mi NW 18.4 mph 33.4 mph N/A   Scattered Clouds
4:53 PM 59.0 °F 37.9 °F 46% 29.70 in 10.0 mi NW 16.1 mph - N/A   Mostly Cloudy
5:53 PM 55.9 °F 37.9 °F 51% 29.70 in 10.0 mi NNW 5.8 mph - N/A   Mostly Cloudy
6:53 PM 54.0 °F 37.0 °F 53% 29.69 in 10.0 mi NNW 16.1 mph 20.7 mph N/A   Scattered Clouds
7:53 PM 53.1 °F 37.0 °F 55% 29.69 in 10.0 mi East 3.5 mph - N/A   Scattered Clouds
8:53 PM 53.1 °F 36.0 °F 52% 29.70 in 10.0 mi Variable 4.6 mph - N/A   Overcast
9:53 PM 52.0 °F 35.1 °F 53% 29.68 in 10.0 mi NE 5.8 mph - N/A   Clear
10:53 PM 50.0 °F 35.1 °F 57% 29.65 in 10.0 mi Calm Calm - N/A   Scattered Clouds
11:53 PM 48.9 °F 39.9 °F 71% 29.67 in 9.0 mi South 11.5 mph - 0.01 in Rain Rain